Location: Unspecified
(0.0000°N, 0.0000°E)
Time: 17:59:47
(UTC+00:00)

Vanguard 1 - Pass Details

Date: 07 October 2020
Orbit: 650 x 3833 km, 34.3° (Epoch: 26 October)

Event Time Altitude Azimuth Distance (km) Brightness Sun altitude
Rises 01:37:39 0° 332° (NNW) 2,947 - -62.0°
Reaches altitude 10° 01:40:14 10° 350° (N) 2,108 - -61.4°
Maximum altitude 01:43:51 22° 41° (NE) 1,662 - -60.5°
Drops below altitude 10° 01:48:27 10° 91° (E) 2,753 - -59.4°
Exits shadow 01:50:26 - 99° (E) 3,442 13.3 -58.9°
Sets 01:52:26 0° 105° (ESE) 4,167 13.8 -58.4°
